Aérodrome :
LOGIN :

S'inscrire | Disclaimer

   EN    FR    IT 

 










Légende :    VFR   VFR Marginal   IFR   IFR Intensif   IFR Très Intensif
Visi : 
Plafond : 
>= 8 km
>= 3000ft
5 à 8 km
1000 à 3000 ft
1500m à 5 km
500 à 1000 ft
800 à 1500m
200 à 500 ft
< 800m
< 200 ft
Symboles :   Orages  Brouillard  Fortes neiges  Fortes précipitations  Vent > 20 kt
SIGMETs :   Divers  Orages  Givrage  Turbulence  Onde Orograph.  Cendres Volcan.







- Altitude de l'aérodrome : 939 ft


LKKB - Kbely Air Base

DERNIER METAR :
  • 261800Z 27005KT CAVOK 34/16 Q1019 NOSIG

METARs EXPIRÉS :
  • 261700Z 28007KT 260V320 CAVOK 35/16 Q1020 NOSIG
  • 261600Z 26007KT 230V290 CAVOK 36/15 Q1020 NOSIG

TAF TAF LKKB
Valide du 26 à 18h jusqu'au 27 à 18h UTC


261700Z 2618/2718 27008KT CAVOK
BECMG 2618/2620 34010KT
TEMPO 2705/2718 36012G26KT
Pas de NOTAMs connus pour ce terrain.



MET'MAP, la Météo Aéronautique d'un coup d'oeil ! - Copyright ORBIFLY Décembre 2007 - Disclaimer

ORBIFLY MET'MAP TEAM :

Programmation & Développement : Alexandra Zaïnal
Conception & Développement : Baudouin d'Aumeries
Co-Programmation & Développement : Marc-Olivier Méhu
Soutien technique & logistique : Manuel Goepfert

Contact : metmap@orbifly.com




SOURCES & CREDITS :

   NOAA